GFSNE_925_spd_000.txt.gz
Wind_Speed
28 30 32 32 30 31 29 26 17 11 10 17 18 18 20 22 23 19 21 23 22 15 13 12 13 13 14 18 18 21 16 57 59 60 57 54 52 52
30 30 31 31 31 32 32 31 27 19 11 21 22 23 24 27 31 29 27 25 22 15 10 13 16 16 16 14 16 17 15 25 45 59 59 52 55 54
25 28 30 30 30 29 29 31 29 24 14 21 23 22 22 23 27 29 29 27 24 24 23 23 22 18 17 20 21 21 19 19 27 37 60 59 61 58
30 30 32 29 28 28 26 28 26 24 22 15 20 22 21 16 16 20 23 25 28 29 28 28 24 19 22 23 21 20 21 17 18 20 46 63 62 62
28 27 24 21 21 20 17 18 20 21 24 17 13 16 19 21 21 23 23 25 28 29 31 29 26 26 25 23 25 24 22 23 21 22 22 51 62 62
16 19 21 22 24 25 25 24 21 21 21 21 21 18 18 18 20 18 22 27 32 33 35 32 30 26 25 24 24 25 23 23 24 22 22 26 53 69
26 28 29 28 25 25 24 26 25 26 27 27 26 25 25 22 20 20 17 20 26 26 28 28 24 22 23 23 24 25 28 25 23 22 25 24 35 60
29 27 28 29 31 33 31 30 28 27 25 23 22 20 23 20 20 22 20 12 7 7 12 17 17 19 20 21 23 24 24 25 26 25 25 27 24 34
27 27 27 26 26 28 30 30 30 31 32 30 27 26 25 21 20 21 21 18 18 21 15 13 16 16 16 17 19 22 26 27 28 28 28 28 28 28
28 29 28 29 30 28 28 27 27 30 30 29 30 31 31 27 26 27 26 27 28 25 22 10 15 19 17 17 20 23 24 27 28 27 29 32 32 34
27 26 26 27 29 29 30 28 30 30 30 30 33 34 31 29 28 27 22 19 12 21 23 18 18 14 17 23 20 23 23 28 28 26 26 31 34 34
26 26 27 29 31 32 31 29 28 28 27 27 26 26 30 33 34 34 26 19 15 7 22 20 12 9 5 9 13 15 17 21 27 28 26 29 34 33
26 26 26 27 28 30 29 27 28 30 27 26 24 25 25 27 27 29 32 28 19 15 15 20 15 16 10 5 10 17 20 25 27 27 25 25 31 34
27 26 27 26 26 23 25 29 27 29 27 25 23 22 23 24 25 25 28 29 31 29 22 23 21 19 9 4 5 12 21 23 23 22 22 27 27 27
20 21 21 20 19 16 15 15 17 20 21 20 21 22 21 23 25 25 25 25 26 28 30 32 30 27 29 20 10 6 8 12 15 14 10 13 18 22
18 20 17 18 16 15 16 15 14 16 19 21 22 24 21 19 21 25 24 22 20 22 25 32 34 32 23 25 21 11 10 6 8 8 5 5 12 21
14 19 20 21 19 19 20 19 19 16 14 15 16 16 16 17 19 20 19 17 16 11 12 20 28 28 26 22 13 12 13 12 9 8 6 7 9 12
14 12 16 17 17 17 19 20 19 20 18 10 6 11 13 15 15 17 19 14 12 11 10 16 22 15 8 4 8 10 11 10 9 11 11 9 7 9
13 15 16 17 18 18 18 18 18 22 18 13 3 3 11 13 13 14 12 12 8 10 13 16 17 7 2 2 2 4 9 10 13 12 12 6 7 9
17 15 15 18 17 18 20 19 21 23 24 21 14 10 4 5 6 10 12 10 10 6 7 9 8 6 3 5 4 3 8 12 15 12 14 12 12 11
16 16 18 18 20 19 20 22 22 22 21 21 20 15 12 6 7 5 6 7 10 8 6 5 2 6 5 11 7 5 8 7 12 17 19 15 9 8
17 16 17 17 19 19 20 21 22 23 22 21 19 18 15 11 9 7 8 8 7 7 6 8 9 11 6 4 4 8 15 23 18 14 13 7 8 4
16 16 17 18 18 19 19 20 20 21 20 18 19 17 16 15 12 11 11 10 11 13 12 12 8 7 5 11 14 8 15 14 16 20 18 15 4 4

GFSNE_925_spd_003.txt.gz
Wind_Speed
21 22 21 21 21 21 23 21 13 10 10 18 20 22 24 27 26 28 22 20 17 16 12 6 5 9 10 11 11 13 12 12 8 44 53 53 52 53
18 19 20 22 24 23 23 23 22 18 11 17 20 20 19 19 18 20 24 21 17 16 14 14 10 15 19 13 10 15 14 13 16 7 45 53 53 56
21 23 25 24 25 26 25 25 24 21 13 20 22 23 22 22 24 22 22 22 19 16 16 19 22 23 19 14 12 13 13 12 11 14 10 40 56 54
22 22 24 25 25 25 25 25 26 26 20 12 11 15 16 15 17 22 24 25 26 27 24 22 21 23 21 16 16 16 16 14 11 11 15 22 19 59
19 19 19 17 19 19 18 19 20 22 22 18 13 13 18 19 20 20 20 23 29 30 32 30 27 27 26 26 21 19 18 17 14 12 13 18 21 27
15 18 21 23 25 27 27 27 27 25 22 20 19 17 18 21 22 23 23 24 25 28 30 29 28 30 30 26 23 17 17 15 14 15 17 15 16 19
26 29 30 29 26 26 26 26 26 25 24 23 24 23 22 19 21 25 26 26 28 28 28 29 28 26 24 20 20 19 19 19 18 16 19 19 19 18
28 27 28 26 27 26 26 27 27 27 25 21 20 17 18 18 22 24 24 20 10 23 23 24 19 19 18 19 22 20 17 16 15 17 17 19 23 24
26 25 25 23 24 27 28 27 28 28 30 28 24 23 22 20 20 18 21 20 19 17 15 15 21 20 20 14 15 15 15 17 18 18 20 21 23 27
26 25 26 28 26 25 26 26 27 26 26 28 26 29 29 28 26 25 26 26 28 27 23 16 24 28 24 23 17 17 19 19 19 18 20 20 22 25
27 25 24 26 28 27 29 28 27 28 26 27 29 29 28 28 26 24 22 19 11 18 23 22 22 25 29 31 32 23 22 20 17 14 15 17 19 22
21 23 25 26 27 27 28 27 26 26 24 25 26 28 29 31 30 32 25 19 16 5 19 16 20 18 6 21 25 22 12 8 10 14 17 18 17 20
23 25 24 24 25 27 26 27 27 29 23 22 23 22 24 26 28 28 31 29 17 18 19 19 15 20 20 15 13 16 11 8 10 15 18 19 16 13
26 23 24 24 23 23 22 21 21 21 25 21 20 20 22 22 24 26 28 29 30 27 21 23 20 23 18 9 9 16 12 16 15 17 19 18 17 15
19 16 19 19 19 18 16 17 17 16 15 16 18 20 22 24 22 23 25 25 27 26 28 30 30 26 27 19 9 15 19 11 16 11 12 15 16 16
15 15 19 18 16 16 18 16 15 14 15 18 18 22 20 19 20 23 20 24 20 17 23 27 31 33 24 27 23 20 21 9 7 9 9 10 10 12
12 14 18 21 19 19 21 21 20 19 17 17 15 12 14 15 17 18 19 17 15 14 18 22 26 30 29 23 18 25 22 17 13 9 3 4 6 8
12 13 16 17 16 17 18 20 20 21 21 18 13 8 8 10 13 14 15 14 13 15 16 16 14 10 6 6 13 13 13 11 9 6 3 4 2 4
14 15 14 17 17 17 19 19 18 22 21 18 15 13 12 10 11 13 13 12 9 9 9 10 10 4 3 3 1 3 6 8 12 9 5 4 4 1
16 14 15 17 18 18 20 20 23 23 23 22 19 17 15 11 8 4 3 2 4 2 3 3 3 3 1 2 2 4 4 8 12 11 11 11 11 6
17 16 17 18 19 20 20 22 23 23 23 23 22 19 16 13 14 11 8 7 5 4 5 5 4 1 4 7 4 6 14 3 3 8 15 12 5 4
18 17 18 19 20 20 21 21 22 25 25 24 22 20 17 14 11 9 8 8 7 6 9 10 8 5 6 3 3 6 14 18 15 14 12 4 4 3
17 17 18 20 21 21 21 22 22 22 23 21 19 18 16 15 12 11 10 9 10 10 11 11 9 10 6 8 9 8 12 12 12 14 12 10 6 4

GFSNE_925_spd_006.txt.gz
Wind_Speed
7 10 12 14 14 13 15 16 11 6 8 13 17 15 15 15 15 17 14 20 15 18 12 11 7 6 7 8 10 9 17 20 20 15 8 49 52 50
13 11 11 14 16 15 17 18 19 16 9 16 18 21 19 18 18 21 24 19 13 11 14 13 12 12 13 12 9 7 13 12 14 15 16 7 47 53
12 16 17 16 18 18 18 19 21 21 11 19 18 19 22 21 21 22 22 21 20 19 18 18 16 15 16 14 11 10 11 16 13 10 12 9 15 49
16 17 19 19 19 18 17 18 20 22 21 16 15 12 16 15 14 16 20 24 26 26 27 29 26 23 23 20 16 14 15 17 18 15 11 15 15 12
16 15 15 15 18 19 22 24 25 24 24 20 18 18 21 21 24 24 23 24 23 26 29 30 30 28 27 25 23 19 20 18 18 19 15 16 15 19
15 18 22 24 26 27 26 25 24 23 22 21 22 20 21 22 24 22 23 26 31 34 34 33 32 32 30 28 30 23 20 19 16 15 16 19 19 16
25 28 29 27 24 25 25 24 22 20 20 20 20 20 19 17 20 22 25 26 27 30 31 33 30 29 28 27 27 25 19 20 17 18 17 21 23 23
26 26 28 25 25 23 22 23 23 22 21 20 20 19 20 18 21 23 22 18 10 23 26 27 26 29 26 25 21 22 24 23 20 18 18 18 20 20
25 25 24 22 22 24 24 23 24 25 27 26 23 22 22 21 21 20 23 21 22 24 21 19 18 22 22 19 15 13 16 19 19 19 19 19 20 22
25 25 24 26 23 22 24 24 24 26 27 28 28 30 29 27 28 27 25 24 24 25 25 17 19 21 24 27 28 24 16 15 18 19 18 18 20 22
23 21 22 22 25 23 25 25 25 25 26 26 29 31 30 27 26 24 21 19 13 19 22 21 20 22 27 30 30 28 28 25 21 18 14 13 14 17
24 22 23 23 23 23 26 24 24 23 22 25 26 27 28 31 32 31 23 18 16 8 19 17 16 14 5 13 20 23 27 28 21 13 11 12 14 16
21 23 24 18 22 24 22 23 22 25 24 23 23 23 22 24 27 29 29 27 21 15 21 21 14 16 12 12 13 9 13 19 14 9 8 9 12 15
23 24 15 19 21 20 19 18 20 20 20 18 18 18 20 22 24 26 28 29 29 28 19 22 16 18 9 5 5 11 13 16 13 13 12 13 11 13
21 16 14 19 19 18 16 17 14 13 14 14 15 18 20 23 23 24 25 26 26 27 27 27 24 22 20 12 9 15 15 11 11 14 18 16 14 14
15 13 15 17 18 18 19 19 17 15 14 14 15 19 22 19 18 19 18 21 17 17 22 23 24 26 19 22 20 19 21 13 9 6 9 14 15 13
10 14 18 20 20 20 20 21 21 21 17 17 15 13 10 8 12 13 14 14 13 10 14 20 20 22 26 23 14 21 21 25 25 21 17 15 14 13
12 13 13 16 17 17 18 20 21 23 22 19 16 14 12 8 6 8 10 12 10 11 12 15 18 13 9 7 14 14 19 18 20 19 15 11 14 11
13 14 14 16 18 18 18 17 19 23 21 20 17 17 17 12 5 7 8 9 10 10 9 9 8 7 4 4 2 5 9 12 14 13 12 12 8 7
16 14 15 17 17 17 20 21 22 25 25 23 21 19 17 17 13 10 6 1 2 2 4 4 6 5 3 3 3 4 3 8 13 11 8 7 5 2
16 16 18 18 19 20 22 23 23 23 24 24 22 20 18 13 12 13 10 8 6 6 5 4 3 4 8 9 5 5 15 6 4 10 12 9 3 1
17 17 18 19 20 21 23 24 24 24 25 25 22 20 17 15 14 11 12 10 10 8 9 8 5 3 2 3 4 6 6 10 10 10 9 4 3 4
17 17 17 19 21 22 22 23 24 24 23 23 22 20 18 17 14 12 12 11 10 10 7 5 6 8 5 6 8 5 7 7 7 8 9 8 4 0

GFSNE_925_spd_009.txt.gz
Wind_Speed
8 3 3 5 6 10 11 13 11 9 11 19 21 17 16 16 15 15 15 13 15 11 12 14 6 6 7 8 10 11 13 11 13 18 22 19 16 17
5 8 10 11 12 11 13 16 15 18 13 22 22 22 21 21 19 19 19 20 15 13 12 12 16 12 9 10 11 10 12 12 12 13 19 19 20 23
6 7 10 10 10 10 13 16 17 18 14 25 22 21 23 22 22 21 22 23 22 21 19 20 21 20 22 19 15 13 12 13 15 15 15 17 13 21
11 11 13 13 12 12 12 14 15 17 19 21 24 23 23 23 20 19 20 21 20 21 22 24 25 28 26 24 23 20 15 16 16 18 17 18 13 18
10 9 10 10 12 14 16 19 20 22 23 25 26 26 25 25 27 27 26 27 27 27 28 28 29 29 29 27 26 27 22 21 20 19 19 20 19 13
11 12 14 15 17 19 20 21 22 23 23 24 25 26 26 26 27 27 27 27 29 29 31 33 33 31 30 32 30 30 29 26 24 22 20 20 20 17
18 19 19 19 21 22 23 23 22 23 23 22 23 24 23 21 22 24 26 25 27 26 26 27 25 25 25 25 28 29 29 29 27 26 23 20 21 20
22 23 23 22 20 19 19 20 22 24 24 23 23 22 24 23 23 23 23 22 13 21 25 26 23 26 24 23 24 26 27 27 27 26 25 23 22 23
21 22 22 21 20 19 19 20 21 23 25 26 27 27 27 24 23 22 22 23 23 21 20 22 19 21 19 19 20 17 14 18 24 27 27 25 23 23
21 21 21 21 19 18 19 21 22 23 23 25 28 29 28 27 26 26 25 25 25 22 20 17 18 19 17 19 20 22 23 21 16 18 21 22 22 23
20 18 18 21 20 21 22 24 25 26 24 26 29 31 33 32 29 24 23 22 17 22 21 19 19 19 20 22 24 27 27 25 24 19 15 16 18 19
19 19 19 20 20 19 19 22 24 23 23 18 19 23 26 30 32 33 28 22 19 14 20 18 18 14 10 11 14 15 19 25 25 25 20 19 17 16
20 21 19 18 14 19 19 19 20 21 21 20 20 21 20 20 21 22 27 28 23 21 19 13 15 15 12 13 9 9 6 13 18 21 17 14 10 10
21 18 15 12 15 16 14 14 18 17 15 16 16 17 17 18 19 20 22 23 23 23 21 14 17 18 15 14 10 6 5 6 11 14 12 10 9 10
18 13 12 14 13 12 12 13 12 10 11 12 12 14 14 17 16 17 19 19 21 23 24 22 20 19 17 15 11 11 7 6 9 12 10 11 11 13
14 8 10 11 11 11 12 12 11 11 11 10 11 13 12 11 11 12 13 13 15 15 18 20 24 24 18 18 18 16 13 10 5 9 8 7 10 12
8 7 9 12 13 15 15 13 12 13 12 11 11 11 9 7 5 5 8 10 12 11 11 11 14 18 19 17 13 17 18 17 15 14 13 13 12 11
7 9 10 11 14 15 16 15 15 15 15 14 12 12 10 8 4 2 5 7 8 8 8 8 8 9 8 11 17 18 17 16 14 13 13 12 13 10
10 10 11 12 13 13 14 15 15 16 15 14 14 13 12 10 6 2 3 4 6 7 6 5 8 10 7 7 3 6 10 12 12 11 11 11 10 7
11 11 12 12 12 13 14 15 15 16 16 16 15 14 13 10 10 8 6 2 1 1 2 1 2 4 3 2 2 1 3 5 8 9 9 7 6 8
13 12 12 12 12 13 14 14 14 15 16 16 15 15 14 12 10 9 6 6 3 3 3 3 2 1 0 3 3 3 6 5 4 4 5 5 4 4
12 13 13 13 13 13 14 14 15 16 16 16 16 15 13 11 10 9 9 6 6 5 5 4 3 1 0 3 3 5 3 4 5 5 5 3 1 2
12 12 12 12 13 13 13 14 14 15 15 15 15 14 13 12 10 9 8 7 6 5 4 3 4 5 4 4 4 3 4 3 3 3 5 3 1 4

GFSNE_925_spd_015.txt.gz
Wind_Speed
9 8 8 8 8 9 9 9 6 5 9 11 12 15 16 14 18 16 15 15 13 19 17 18 15 16 15 18 19 19 17 16 15 13 13 13 14 18
12 12 12 13 13 14 13 11 13 14 9 15 17 17 21 21 17 12 16 18 17 15 18 22 19 18 18 16 18 17 14 14 16 17 16 15 15 15
13 14 16 17 18 19 18 18 18 18 13 20 21 20 19 21 23 21 19 20 22 26 27 28 26 23 19 18 18 18 18 16 15 16 18 19 19 19
18 19 20 20 20 19 19 19 20 22 22 19 22 22 23 23 23 22 23 23 23 24 25 28 28 27 29 28 27 25 24 24 26 24 21 21 21 23
20 22 22 21 21 20 20 21 21 22 23 23 22 23 24 23 23 23 23 23 25 25 24 19 22 26 27 29 31 30 31 32 31 30 30 28 25 25
22 22 22 22 22 22 21 20 21 22 23 24 24 24 24 24 24 22 22 23 23 25 25 27 25 26 27 29 31 31 32 32 34 36 35 33 33 31
25 25 25 23 20 22 24 25 23 22 23 22 22 23 21 20 19 19 20 19 20 19 19 21 20 23 30 35 34 37 38 39 39 39 38 39 36 36
25 25 25 24 23 20 17 20 23 22 23 24 24 22 24 23 23 21 20 18 11 19 22 25 23 24 25 25 22 13 23 28 26 27 32 35 35 37
25 26 26 25 22 23 22 10 16 20 24 25 25 26 24 23 24 24 24 22 21 20 20 21 18 20 19 21 27 29 23 18 18 23 27 28 31 33
25 25 26 26 24 20 20 20 21 21 22 24 27 29 26 26 25 26 24 24 24 23 22 18 19 21 19 21 25 28 30 29 28 25 27 30 30 30
24 23 22 24 24 21 21 22 23 23 21 22 27 31 33 34 34 28 23 20 15 20 21 24 22 22 22 24 24 26 28 29 29 31 28 27 23 21
22 22 23 24 24 24 18 18 18 21 23 22 21 22 23 24 26 29 27 23 21 18 21 20 20 20 15 20 25 24 23 27 29 31 32 32 29 24
24 23 22 9 15 15 15 18 21 20 20 21 22 22 20 20 21 22 29 29 24 23 23 19 7 16 19 16 14 11 12 13 17 18 21 28 31 29
24 24 19 23 19 19 16 15 16 17 17 18 17 17 15 16 16 17 19 22 26 26 21 17 13 18 15 12 12 14 15 16 13 13 14 18 23 28
22 20 22 13 17 15 11 14 13 13 11 13 13 13 12 13 14 14 15 17 20 21 21 19 19 17 16 12 12 13 9 9 11 11 11 14 20 20
21 19 14 13 14 16 10 8 8 8 10 12 12 12 13 13 15 12 11 11 12 14 17 20 21 17 16 17 16 16 16 11 8 9 11 13 14 14
20 12 12 13 14 14 11 10 9 10 10 11 12 12 11 12 14 6 8 8 8 9 11 15 18 20 18 16 15 15 14 17 15 12 12 11 11 12
14 11 12 13 14 15 15 15 13 13 14 13 13 12 12 14 14 7 5 6 7 7 8 5 12 11 11 15 20 16 15 14 14 12 14 12 10 11
12 12 13 14 14 14 15 16 16 15 14 13 13 13 13 13 15 12 10 6 6 8 5 1 4 7 6 7 5 16 6 8 9 12 11 8 8 8
12 13 13 14 16 16 16 16 16 15 15 14 13 13 13 13 11 12 11 10 10 7 4 5 6 9 6 4 3 2 4 4 7 8 8 8 7 10
12 13 13 14 14 15 16 16 16 15 15 15 15 14 13 12 11 11 11 11 11 10 7 8 8 7 6 7 5 6 3 8 3 4 9 4 4 7
12 13 13 13 14 14 15 16 17 16 16 16 16 15 14 12 11 11 11 10 10 8 7 4 6 6 5 4 6 1 3 3 5 5 4 3 4 3
11 11 12 12 13 13 14 15 16 16 16 17 17 17 16 14 13 11 11 10 10 10 9 8 7 4 5 6 6 3 1 0 3 2 4 7 4 4

GFSNE_925_spd_018.txt.gz
Wind_Speed
18 15 14 14 13 13 12 10 4 3 4 11 8 14 15 15 14 12 13 12 14 13 14 19 17 19 15 13 15 19 20 20 18 15 14 14 16 16
15 13 14 16 15 17 17 17 16 16 7 11 19 18 17 12 15 19 18 18 17 15 14 16 19 19 18 15 14 16 17 16 15 16 16 14 13 14
15 15 17 20 19 18 20 19 19 21 13 21 24 22 18 13 16 14 21 25 22 19 21 24 26 26 26 23 18 15 13 13 12 11 11 13 15 15
19 20 20 18 20 18 18 19 19 20 20 15 18 19 20 19 19 20 19 18 21 18 21 24 28 27 27 26 24 23 21 21 20 19 19 18 15 16
25 26 24 22 22 20 20 21 20 19 21 20 18 21 22 23 23 23 23 22 20 22 23 24 22 20 31 29 26 26 28 29 31 30 28 26 24 24
23 28 29 27 25 24 17 16 17 21 22 21 21 21 22 22 24 25 23 23 25 22 22 23 23 23 25 29 31 30 30 32 35 36 36 36 33 31
24 26 26 27 28 26 22 22 19 18 18 18 18 19 18 18 15 15 17 17 17 15 14 16 18 17 14 27 29 29 30 34 37 37 35 33 35 35
25 27 27 27 26 22 17 21 24 23 19 17 17 17 20 21 20 17 17 15 4 14 12 14 17 21 21 18 16 19 19 20 20 28 32 28 27 32
25 26 26 24 25 21 16 17 16 16 20 23 22 23 21 23 23 22 21 18 16 15 17 20 21 24 21 21 20 20 21 20 24 23 19 22 25 25
23 26 26 26 24 24 24 20 19 20 20 21 23 29 26 26 25 21 19 18 20 21 21 16 20 24 24 25 25 28 28 31 30 29 28 28 26 27
23 23 25 26 26 25 24 22 23 22 21 21 20 22 24 27 29 26 22 18 16 19 19 21 22 25 26 28 29 30 31 32 32 31 30 29 30 27
22 23 24 24 10 11 13 14 15 16 18 20 24 25 25 24 23 25 24 19 17 15 22 20 17 17 8 24 29 30 28 28 28 28 30 31 30 30
23 24 24 23 22 17 16 18 19 19 19 19 22 23 23 22 22 22 23 25 21 21 23 17 15 15 10 12 16 17 17 15 18 18 21 25 27 30
24 25 22 26 18 19 18 15 16 17 18 18 19 20 19 20 20 19 19 20 27 29 28 17 9 15 16 13 10 12 12 12 16 20 17 18 20 22
23 25 22 20 16 17 19 17 18 18 16 11 13 14 15 17 17 17 16 16 18 20 20 20 20 19 16 12 7 8 10 12 16 14 16 17 18 19
26 22 18 17 17 18 18 14 13 10 12 13 13 16 15 15 15 17 17 11 12 15 14 18 21 21 19 18 15 16 14 9 12 14 16 17 16 16
21 14 16 18 18 19 19 20 17 16 16 16 16 16 16 17 17 21 8 9 8 10 12 15 16 17 19 18 16 17 14 14 14 13 15 19 16 14
16 14 14 16 16 17 16 16 17 17 18 17 16 15 16 17 18 19 14 11 11 10 9 6 10 14 11 12 19 19 15 14 13 11 11 16 19 13
14 14 14 16 16 17 17 17 18 18 19 20 17 17 17 18 17 16 18 16 14 12 7 10 5 4 3 3 1 7 9 7 12 16 12 11 12 10
14 14 15 16 16 17 18 19 22 18 20 20 19 18 18 18 15 16 16 15 16 14 13 14 13 10 5 2 3 1 3 5 8 9 8 9 6 6
15 14 14 15 16 17 18 19 21 19 19 20 20 21 20 17 15 15 14 14 14 14 11 11 10 8 7 7 3 4 1 6 6 4 7 8 2 5
14 15 15 15 15 16 17 18 19 19 19 20 21 23 22 19 18 15 15 14 13 14 12 12 8 6 6 5 8 3 4 4 5 5 7 5 2 1
13 14 14 14 15 15 16 17 17 17 17 18 19 22 22 19 20 16 16 16 14 16 17 15 10 7 5 3 5 2 3 1 4 6 3 8 4 2

GFSNE_925_spd_021.txt.gz
Wind_Speed
19 17 15 12 14 15 16 17 9 6 4 7 15 18 22 19 14 9 14 4 8 19 13 11 10 10 7 9 12 12 12 17 18 18 17 13 11 9
18 17 17 16 17 19 17 15 17 17 8 14 19 25 23 22 21 10 14 15 16 14 11 17 11 10 13 13 13 13 12 16 20 17 16 15 14 10
15 17 20 22 22 22 20 17 15 18 12 18 19 18 17 15 12 14 11 10 16 16 21 17 18 15 16 17 18 17 14 15 12 12 13 13 13 13
18 23 25 25 26 26 23 21 20 20 19 9 14 19 20 20 22 21 20 12 11 13 17 17 20 19 20 21 23 19 17 17 15 14 13 14 13 14
22 24 25 27 28 27 27 25 18 13 15 15 13 20 24 24 24 24 21 23 24 21 18 17 18 17 17 19 26 24 20 21 23 23 23 23 22 21
23 24 27 25 26 27 28 26 24 24 23 21 20 16 15 19 20 17 18 14 14 11 13 15 13 15 16 20 22 25 27 26 24 25 27 27 28 29
24 25 23 23 23 24 20 18 19 19 18 18 16 13 13 14 18 18 18 17 20 15 13 11 9 9 9 6 11 21 25 27 25 25 26 26 27 27
23 25 26 22 20 23 17 16 16 15 16 15 12 9 15 19 21 21 20 15 4 15 11 14 13 15 8 7 15 13 16 16 17 17 17 18 24 26
21 23 28 21 24 24 23 21 20 18 18 17 16 19 21 24 21 21 19 18 18 17 17 20 20 22 22 19 16 15 17 18 20 22 24 24 25 23
19 23 27 27 25 24 25 23 24 23 20 19 20 23 23 23 22 22 23 21 17 20 19 12 18 22 23 23 22 21 21 23 26 26 27 27 28 28
20 22 23 25 24 22 15 14 16 17 16 15 15 14 16 17 18 20 18 17 17 19 23 21 22 21 23 24 24 25 26 27 28 27 27 28 28 27
20 21 22 21 21 20 19 15 16 21 18 19 22 24 24 24 23 22 23 19 16 11 21 18 21 16 5 19 19 20 23 24 23 25 26 25 26 28
20 22 23 22 25 21 17 19 19 17 18 18 21 20 17 16 17 17 20 23 19 19 20 14 12 19 16 14 18 18 15 15 18 17 16 18 21 25
22 24 26 26 17 16 17 18 17 16 18 16 17 18 17 15 14 15 16 21 24 27 25 20 14 20 16 12 12 15 13 11 10 13 15 20 21 20
22 23 20 16 16 17 17 17 16 13 10 10 10 12 14 14 13 13 12 13 16 18 18 21 23 15 17 11 6 7 6 6 11 13 10 11 18 21
23 17 17 17 18 18 20 18 18 18 15 14 15 15 14 14 13 16 16 5 8 10 11 14 18 20 18 19 18 16 17 11 11 13 14 15 17 21
17 16 18 20 18 19 20 20 20 19 19 18 16 15 15 16 16 19 15 8 8 8 9 7 11 15 19 18 15 19 20 19 16 14 14 12 13 16
16 15 16 16 16 16 18 19 21 17 19 19 17 17 17 17 17 17 18 16 13 12 8 6 6 8 9 9 15 17 16 15 13 12 9 10 14 17
16 15 16 17 16 16 17 18 20 19 20 19 19 20 19 18 16 16 18 17 15 14 17 15 13 3 3 1 1 3 8 8 11 16 13 10 10 15
16 15 16 17 17 16 18 18 20 20 21 21 21 22 22 18 18 17 17 15 14 12 12 14 12 10 2 2 2 1 3 4 5 8 9 10 9 8
15 15 16 17 17 17 19 19 19 19 19 20 21 22 24 20 18 18 17 15 14 12 12 15 10 7 6 4 2 2 3 2 4 5 7 6 5 3
12 14 14 15 17 16 18 19 19 20 19 19 19 21 22 22 21 18 17 15 16 16 14 12 10 4 3 3 2 3 2 0 2 3 5 6 3 2
12 13 12 13 15 15 15 17 17 18 18 18 18 20 20 22 21 20 17 17 14 18 18 16 14 8 7 4 5 2 2 2 4 5 4 5 4 3

GFSNE_925_spd_024.txt.gz
Wind_Speed
17 16 16 17 18 17 16 12 12 7 6 5 9 20 23 23 18 18 18 21 15 4 6 10 12 13 11 9 9 10 10 9 14 14 15 11 7 5
10 8 12 18 18 18 20 22 17 14 5 10 21 18 13 15 14 13 17 16 17 13 7 13 11 13 11 9 7 8 9 8 10 13 10 10 7 5
10 15 19 22 22 23 22 22 20 19 12 16 12 11 15 18 19 16 11 14 16 19 13 9 16 14 16 13 11 9 10 11 9 9 8 7 8 7
13 17 21 21 25 25 23 22 22 22 21 11 8 11 15 17 19 18 19 14 15 16 16 13 16 12 18 17 15 11 10 11 12 7 7 8 6 5
16 18 20 21 24 24 23 24 23 23 20 19 15 13 15 19 18 17 14 10 11 9 12 16 21 18 16 15 14 14 16 14 13 13 12 13 13 14
20 17 18 18 20 23 23 21 15 17 17 19 19 15 12 14 17 13 15 16 16 14 12 7 4 5 8 15 16 16 13 18 18 17 16 15 14 14
18 17 17 18 19 19 18 19 15 16 16 14 13 12 14 12 13 16 17 17 20 21 11 7 6 6 3 2 1 9 12 13 18 21 20 18 18 17
19 20 20 20 20 20 19 19 19 18 15 13 10 7 15 15 18 16 16 12 3 9 10 17 17 16 13 9 7 7 6 9 11 14 16 17 17 17
19 20 21 19 23 23 24 21 21 20 19 20 19 18 19 21 19 17 17 16 15 17 15 18 18 19 18 17 16 14 13 12 13 14 14 15 16 18
17 20 23 24 22 22 23 22 21 16 15 17 20 22 21 21 21 20 20 19 19 17 15 8 21 22 21 17 16 15 15 17 19 20 20 20 21 22
22 21 21 22 21 21 21 23 19 21 19 16 16 13 13 12 14 14 15 13 10 17 18 15 18 21 23 25 24 20 20 23 25 26 26 26 25 25
19 21 20 19 22 23 22 21 15 19 21 17 16 17 18 19 19 21 24 18 15 11 22 16 19 11 5 14 20 21 15 11 20 22 21 23 24 25
20 20 22 22 18 19 18 19 18 18 18 18 17 16 13 12 13 14 17 22 19 20 16 12 11 14 11 10 14 13 14 11 9 11 13 14 16 20
20 22 21 18 17 16 17 16 14 11 9 12 14 13 13 12 11 11 13 15 20 26 22 16 13 17 16 6 9 10 10 8 11 11 12 13 15 19
16 15 16 16 16 17 16 15 15 15 13 12 10 11 12 11 8 8 8 12 14 17 19 21 22 22 18 13 5 6 3 2 5 8 12 13 13 10
15 13 15 16 16 18 18 20 18 17 15 13 12 12 12 11 10 12 7 5 3 6 7 12 16 18 14 17 18 15 14 7 5 8 12 15 16 15
14 14 17 18 17 17 20 21 21 20 19 18 16 15 14 14 13 14 10 9 4 4 6 4 8 13 14 12 13 15 17 16 15 14 13 16 13 13
14 15 15 16 17 16 17 19 21 21 20 19 18 17 16 15 14 15 15 14 12 12 10 4 0 4 5 7 13 14 12 12 10 9 9 9 13 17
14 14 14 15 16 15 16 16 16 18 18 19 19 19 19 17 15 15 15 14 13 13 14 13 10 3 1 2 2 4 3 4 8 9 13 13 13 15
13 13 13 14 15 14 16 16 17 18 18 18 19 19 20 18 16 16 15 14 13 11 12 10 10 10 3 1 3 2 3 3 3 3 3 7 10 10
11 13 11 11 14 13 14 15 16 18 16 15 18 19 19 19 18 17 16 14 15 13 11 12 8 4 3 4 3 4 4 3 3 4 6 4 4 3
10 11 11 10 12 12 12 14 16 18 18 16 16 17 17 17 18 15 16 13 14 14 12 9 5 4 1 3 3 2 3 4 4 4 3 5 3 1
10 10 11 11 12 13 12 14 15 15 15 14 14 16 16 17 15 14 13 13 13 14 15 13 10 7 7 3 2 5 4 4 5 6 4 4 4 4

GFSNE_925_spd_027.txt.gz
Wind_Speed
14 11 9 7 11 12 14 15 10 7 8 9 5 16 13 12 15 12 13 13 15 17 14 12 8 6 11 9 8 9 10 11 12 17 12 16 10 8
9 6 10 13 16 17 19 17 16 15 9 13 21 21 12 14 15 15 13 13 16 19 19 16 11 10 6 6 5 5 6 7 8 13 17 13 12 9
10 11 14 17 20 22 23 22 21 18 10 18 21 20 15 12 13 15 16 16 14 16 18 18 19 10 7 8 9 12 11 8 9 14 16 14 12 12
13 15 19 19 20 21 21 22 22 22 20 16 19 18 15 17 17 18 17 16 14 11 11 14 18 16 9 11 9 12 11 12 10 10 12 14 14 12
17 19 18 17 19 20 21 23 22 20 18 18 17 20 19 16 12 13 13 12 11 10 8 6 11 20 19 14 10 9 14 13 10 12 12 13 12 11
20 18 18 18 18 20 22 21 17 20 17 15 14 15 15 14 12 12 12 12 15 15 12 6 3 5 9 15 18 16 14 16 16 15 14 12 10 9
20 20 20 19 20 20 20 21 23 19 17 14 12 9 12 14 14 7 11 12 15 16 14 9 6 2 3 3 4 11 18 18 19 19 18 15 11 11
22 22 20 20 19 21 22 20 21 22 19 17 16 13 15 17 15 16 13 9 2 7 5 7 10 13 11 9 5 3 4 7 13 18 19 17 15 14
18 21 22 19 23 23 22 21 21 21 21 23 19 17 17 22 20 17 16 13 12 17 14 14 11 14 14 14 14 13 12 8 7 10 10 12 12 11
22 20 21 23 22 21 24 22 23 22 19 17 19 20 21 21 20 20 19 17 17 18 15 9 13 17 18 16 15 13 15 15 14 13 13 14 14 16
19 21 19 20 20 22 25 25 26 24 21 17 17 18 18 16 13 13 14 12 8 12 15 16 20 17 17 20 19 17 17 16 18 20 20 19 20 20
22 21 18 18 21 20 22 19 21 22 18 18 17 17 15 17 19 21 22 17 13 8 15 13 17 11 4 7 11 16 21 18 17 19 23 24 24 24
19 19 21 19 21 18 17 19 17 17 14 14 16 16 14 11 12 14 19 23 18 20 13 8 5 9 7 5 10 7 5 9 8 8 13 19 18 19
17 19 18 19 18 17 17 18 15 14 15 13 12 12 12 12 11 11 12 15 19 24 18 14 10 14 11 3 4 5 5 6 8 12 11 13 13 14
16 15 15 16 15 16 17 17 17 19 17 16 13 13 13 13 12 9 9 13 16 19 18 18 21 19 14 10 4 5 3 1 3 5 6 7 10 12
16 13 14 15 15 15 17 18 18 19 18 17 16 15 14 13 11 10 5 4 5 7 7 14 14 16 16 14 15 14 12 5 3 7 4 7 10 11
13 12 16 19 19 18 19 18 20 21 21 20 19 18 16 16 14 13 9 6 2 4 6 4 9 13 13 13 9 12 14 13 12 12 12 15 15 14
11 12 14 16 18 16 17 17 19 20 20 19 18 18 17 17 15 14 14 12 12 12 11 4 2 6 5 6 11 12 10 12 11 10 11 11 12 13
11 10 11 13 15 14 16 15 16 18 15 16 17 18 17 16 16 15 15 13 12 12 11 11 10 1 2 3 2 1 2 0 4 7 10 13 16 17
9 10 10 10 13 12 14 15 17 17 16 15 17 17 18 16 16 16 14 15 13 11 11 8 9 9 2 2 2 2 1 1 1 1 3 6 10 11
8 8 9 9 11 11 11 13 13 15 14 13 15 16 17 16 16 14 14 11 12 12 11 11 8 5 3 1 2 1 3 1 0 1 3 3 4 2
7 7 8 9 9 10 10 13 13 15 14 13 13 14 14 14 14 14 13 13 13 12 12 9 6 2 1 1 1 3 1 1 2 3 3 3 2 1
8 7 7 9 8 9 9 11 13 13 12 12 12 13 13 14 12 12 10 11 12 13 13 11 8 4 5 2 3 2 3 3 2 3 3 3 3 4

GFSNE_925_spd_030.txt.gz
Wind_Speed
15 16 14 11 12 15 15 15 9 6 10 17 17 15 20 19 17 16 15 14 16 18 19 19 19 14 10 10 9 3 3 8 11 16 17 18 16 13
13 11 12 14 16 20 21 22 19 17 9 17 23 23 25 23 19 20 17 17 15 15 17 18 18 18 12 7 5 10 8 5 7 14 20 23 19 16
11 12 15 17 22 23 24 23 22 19 15 24 24 26 27 25 23 17 17 19 21 16 13 14 16 16 11 13 5 3 7 8 8 12 24 25 20 19
12 15 20 24 23 22 21 22 22 22 20 20 24 24 23 22 17 20 18 16 16 15 13 10 11 16 13 8 9 6 5 10 12 12 21 22 22 23
17 21 23 22 23 24 23 23 23 21 20 20 24 22 22 22 23 20 17 16 14 15 17 14 10 10 15 12 12 9 3 9 14 13 13 22 23 21
22 21 21 23 23 25 24 21 20 20 20 21 20 18 17 20 17 16 17 15 15 14 15 16 9 4 8 11 16 12 9 7 8 14 16 14 13 16
22 22 23 21 23 23 23 21 22 21 19 17 18 18 16 13 13 11 13 12 16 15 15 11 10 7 1 4 8 15 17 13 12 13 14 16 16 14
23 22 24 22 20 20 23 23 23 23 20 19 19 17 18 18 20 17 13 9 4 7 9 8 9 13 10 6 3 5 8 19 19 15 17 18 16 15
22 21 18 17 20 22 22 22 24 23 21 23 21 14 15 16 20 18 17 15 12 15 13 16 15 15 14 13 10 8 8 9 12 13 19 20 19 17
19 17 19 20 21 20 26 23 22 23 23 21 20 22 22 22 21 23 20 17 17 16 14 10 13 17 12 13 13 13 11 12 12 12 12 14 16 16
18 19 16 17 19 23 24 19 20 21 19 16 18 19 19 20 20 18 13 14 11 11 13 14 12 17 20 20 17 16 17 17 16 16 17 17 17 16
21 19 17 16 21 21 20 20 19 16 18 19 18 16 16 17 18 19 21 15 7 4 11 13 13 10 4 8 11 15 22 21 20 18 20 22 22 22
18 19 19 18 19 20 18 19 18 18 17 16 15 13 13 13 12 13 17 23 18 16 12 10 5 6 7 3 5 5 4 16 22 18 18 21 26 27
18 19 18 18 18 17 17 18 17 17 18 17 16 14 15 16 14 13 13 15 19 23 15 17 9 12 7 2 3 3 4 7 11 13 15 13 18 20
16 14 14 15 15 15 15 16 17 18 18 17 16 16 18 16 14 13 11 12 16 17 18 19 20 17 12 8 4 2 1 4 5 9 12 13 16 17
16 13 13 14 14 14 17 17 18 18 16 17 17 19 17 17 16 15 9 6 4 8 9 13 14 16 14 12 11 11 9 4 1 7 6 7 8 9
15 12 14 18 19 18 20 18 19 20 20 20 20 19 18 18 19 19 15 11 6 4 5 3 10 12 12 10 8 10 8 10 8 8 8 9 10 10
12 12 13 15 17 16 17 18 19 21 19 18 18 18 17 17 18 19 17 13 11 12 12 8 1 6 4 4 8 7 7 9 8 8 9 7 10 8
10 11 11 12 14 14 14 16 17 19 16 16 17 18 18 16 17 16 16 15 12 12 13 13 13 3 2 1 1 1 2 1 2 5 7 8 9 11
9 10 11 11 12 12 12 14 14 16 16 15 16 16 17 15 15 15 15 15 14 11 11 10 10 9 3 0 1 1 1 0 1 2 3 5 7 7
9 9 10 10 10 11 10 11 12 13 13 12 13 14 15 14 14 14 14 14 13 12 11 12 12 7 4 1 1 1 3 3 1 1 1 2 2 1
10 11 9 9 10 10 10 10 12 13 12 12 11 12 13 13 13 14 13 13 14 13 13 12 9 5 1 2 1 1 2 3 1 2 2 1 2 1
12 12 10 10 10 10 10 10 11 12 12 11 11 11 12 14 13 12 11 11 14 14 14 12 10 5 4 3 2 2 0 2 1 1 1 3 2 2

GFSNE_925_spd_033.txt.gz
Wind_Speed
13 14 12 11 9 10 11 12 15 14 15 29 29 23 23 23 24 25 22 19 19 17 19 17 17 20 20 15 18 7 5 6 9 17 21 22 21 20
11 12 11 11 12 13 15 16 18 22 15 26 28 28 27 27 26 25 24 22 19 19 21 19 16 16 18 15 11 17 11 12 8 9 22 23 24 19
11 11 13 14 17 18 18 19 18 19 19 29 27 27 27 26 26 24 23 22 22 20 16 15 14 14 16 16 15 7 16 13 15 12 17 23 27 19
10 12 17 19 20 20 19 20 19 21 23 27 28 27 25 25 24 23 20 22 20 19 18 17 15 14 15 17 14 15 7 14 17 22 12 22 25 24
13 17 19 19 21 21 22 23 22 21 22 24 29 27 26 22 22 21 22 22 20 18 18 18 16 16 15 17 16 11 11 11 18 14 6 19 21 26
15 16 18 18 20 22 22 22 21 20 21 24 26 25 23 21 20 19 19 18 17 17 16 17 16 13 11 12 18 15 13 9 10 13 13 4 20 29
15 16 17 19 20 19 20 21 21 22 21 21 22 22 21 19 18 17 16 16 16 16 16 14 10 9 8 6 3 14 15 10 12 11 8 6 7 14
17 18 17 15 15 18 18 18 18 20 22 22 22 21 22 23 19 18 17 16 10 12 11 11 7 9 9 8 6 2 8 16 11 13 10 10 8 4
16 17 16 16 16 16 17 22 21 20 22 24 24 24 23 19 17 18 17 17 19 17 13 17 13 14 11 11 15 8 5 7 13 13 16 18 14 13
15 15 16 17 16 17 22 21 18 18 19 17 19 22 22 20 19 20 20 20 17 16 15 13 14 15 12 10 11 18 11 8 8 11 17 17 18 20
15 16 15 16 16 20 20 19 19 19 16 19 20 21 21 21 20 18 18 16 13 15 11 12 13 12 12 14 12 13 17 17 12 12 11 15 20 21
16 15 14 15 18 19 19 18 18 19 21 20 18 16 13 14 15 16 17 17 18 6 10 11 11 7 5 5 8 11 15 20 21 18 17 16 16 15
16 17 15 16 18 17 16 13 17 19 17 16 15 14 13 12 11 10 12 15 17 20 14 9 10 7 7 4 2 3 5 12 20 20 21 21 22 21
15 15 15 17 16 15 13 15 15 14 14 14 14 14 14 14 13 13 13 14 15 18 11 12 10 10 8 4 4 1 4 5 11 17 15 17 21 24
13 15 14 15 15 11 13 12 12 12 13 14 14 15 15 15 15 13 12 10 13 14 15 17 16 12 10 6 2 2 3 5 6 10 13 12 12 15
13 12 11 12 12 10 11 11 11 11 11 12 14 15 14 15 14 15 11 9 3 6 11 16 17 16 12 10 7 6 5 2 5 6 7 9 10 11
13 9 9 10 11 11 11 11 12 13 12 12 14 15 15 15 15 15 14 11 10 8 5 1 9 12 12 8 7 6 5 6 5 6 5 7 8 8
9 9 9 9 10 11 11 12 11 13 12 12 12 13 14 14 15 14 13 13 12 11 11 9 1 7 6 3 4 3 4 5 5 7 8 8 11 10
8 8 8 8 9 9 10 10 12 12 12 10 11 12 13 12 13 12 12 12 11 11 10 10 10 6 4 3 3 2 2 2 1 6 7 9 8 6
9 9 8 8 8 8 9 9 11 11 11 11 10 11 12 11 12 12 12 12 12 10 9 7 7 8 6 3 3 2 2 2 1 3 4 4 7 8
10 10 8 8 8 8 8 7 8 10 11 10 9 10 11 11 10 10 10 11 11 10 9 8 8 6 3 1 1 1 1 3 3 2 2 1 2 3
13 12 10 8 8 8 7 8 8 8 9 9 9 9 9 9 9 9 10 10 11 10 10 8 8 4 3 3 0 1 3 2 1 1 2 2 1 1
14 12 11 10 9 9 8 7 7 7 8 8 8 8 9 9 9 8 8 8 9 9 10 9 7 4 4 3 2 1 1 3 1 1 2 2 1 1